• In Uzbekistan
  • List of Countries
  • For 7 days
  • Water Temperature
  • Satellite Maps
  • Weather Map
  • Weather Widgets
  • user-avatar
    Login

    Hourly Weather Bulawayo

    Today, 18 July, Wednesday

    Time Temperature Precipitation Wind Pressure Humidity
    00:00 +7°C° 0 mm 4 mps 656 mmHg 86%
    01:00 +7°C° 0 mm 4 mps 656 mmHg 88%
    02:00 +7°C° 0 mm 4 mps 656 mmHg 86%
    03:00 +7°C° 0 mm 4 mps 656 mmHg 86%
    04:00 +7°C° 0 mm 4 mps 656 mmHg 85%
    05:00 +7°C° 0 mm 4 mps 656 mmHg 84%
    06:00 +8°C° 0 mm 5 mps 656 mmHg 82%
    07:00 +8°C° 0 mm 5 mps 656 mmHg 80%
    08:00 +8°C° 0 mm 6 mps 656 mmHg 78%
    09:00 +9°C° 0 mm 6 mps 657 mmHg 71%
    10:00 +11°C° 0 mm 6 mps 657 mmHg 64%
    11:00 +13°C° 0 mm 6 mps 657 mmHg 57%
    12:00 +13°C° 0 mm 6 mps 657 mmHg 56%
    13:00 +13°C° 0 mm 6 mps 657 mmHg 54%
    14:00 +14°C° 0 mm 5 mps 656 mmHg 52%
    15:00 +13°C° 0 mm 5 mps 656 mmHg 54%
    16:00 +13°C° 0 mm 5 mps 656 mmHg 55%
    17:00 +12°C° 0 mm 5 mps 655 mmHg 56%
    18:00 +11°C° 0 mm 4 mps 655 mmHg 62%
    19:00 +10°C° 0 mm 4 mps 655 mmHg 68%
    20:00 +9°C° 0 mm 3 mps 655 mmHg 73%
    21:00 +8°C° 0 mm 3 mps 656 mmHg 77%
    22:00 +8°C° 0 mm 3 mps 656 mmHg 80%
    23:00 +7°C° 0 mm 4 mps 656 mmHg 84%

    Tomorrow, 19 July, Thursday

    Time Temperature Precipitation Wind Pressure Humidity
    00:00 +6°C° 0 mm 4 mps 656 mmHg 85%
    01:00 +6°C° 0 mm 4 mps 656 mmHg 86%
    02:00 +6°C° 0 mm 4 mps 655 mmHg 87%
    03:00 +6°C° 0 mm 4 mps 655 mmHg 88%
    04:00 +6°C° 0 mm 4 mps 655 mmHg 89%
    05:00 +6°C° 0 mm 4 mps 655 mmHg 90%
    06:00 +6°C° 0 mm 5 mps 655 mmHg 86%
    07:00 +7°C° 0 mm 5 mps 655 mmHg 82%
    08:00 +8°C° 0 mm 5 mps 656 mmHg 78%
    09:00 +9°C° 0 mm 5 mps 656 mmHg 70%
    10:00 +12°C° 0 mm 5 mps 657 mmHg 62%
    11:00 +13°C° 0 mm 5 mps 657 mmHg 54%
    12:00 +14°C° 0 mm 5 mps 657 mmHg 50%
    13:00 +15°C° 0 mm 5 mps 656 mmHg 47%
    14:00 +16°C° 0 mm 5 mps 656 mmHg 43%
    15:00 +15°C° 0 mm 5 mps 655 mmHg 45%
    16:00 +14°C° 0 mm 5 mps 655 mmHg 48%
    17:00 +14°C° 0 mm 4 mps 654 mmHg 50%
    18:00 +12°C° 0 mm 4 mps 654 mmHg 56%
    19:00 +11°C° 0 mm 4 mps 654 mmHg 62%
    20:00 +10°C° 0 mm 4 mps 654 mmHg 68%
    21:00 +8°C° 0 mm 4 mps 654 mmHg 71%
    22:00 +8°C° 0 mm 4 mps 655 mmHg 74%
    23:00 +7°C° 0 mm 4 mps 655 mmHg 77%

    Day after tomorrow, 20 July, Friday

    Time Temperature Precipitation Wind Pressure Humidity
    00:00 +7°C° 0 mm 4 mps 654 mmHg 79%
    01:00 +6°C° 0 mm 4 mps 654 mmHg 80%
    02:00 +7°C° 0 mm 3 mps 654 mmHg 82%
    03:00 +7°C° 0 mm 3 mps 654 mmHg 82%
    04:00 +7°C° 0 mm 3 mps 654 mmHg 82%
    05:00 +7°C° 0 mm 3 mps 653 mmHg 82%
    06:00 +6°C° 0 mm 4 mps 654 mmHg 80%
    07:00 +7°C° 0 mm 4 mps 654 mmHg 78%
    08:00 +8°C° 0 mm 4 mps 655 mmHg 75%
    09:00 +11°C° 0 mm 4 mps 656 mmHg 67%
    10:00 +13°C° 0 mm 4 mps 656 mmHg 58%
    11:00 +17°C° 0 mm 4 mps 657 mmHg 49%
    12:00 +18°C° 0 mm 4 mps 656 mmHg 45%
    13:00 +19°C° 0 mm 3 mps 656 mmHg 40%
    14:00 +19°C° 0 mm 3 mps 655 mmHg 36%
    15:00 +19°C° 0 mm 3 mps 655 mmHg 38%
    16:00 +18°C° 0 mm 4 mps 654 mmHg 41%
    17:00 +17°C° 0 mm 4 mps 654 mmHg 44%
    18:00 +14°C° 0 mm 4 mps 654 mmHg 52%
    19:00 +13°C° 0 mm 4 mps 654 mmHg 61%
    20:00 +11°C° 0 mm 4 mps 654 mmHg 70%
    21:00 +10°C° 0 mm 4 mps 654 mmHg 74%
    22:00 +10°C° 0 mm 4 mps 654 mmHg 79%
    23:00 +8°C° 0 mm 4 mps 654 mmHg 83%

    21 July, Saturday

    Time Temperature Precipitation Wind Pressure Humidity
    00:00 +9°C° 0 mm 3 mps 654 mmHg 84%
    01:00 +9°C° 0 mm 3 mps 653 mmHg 86%
    02:00 +8°C° 0 mm 3 mps 653 mmHg 88%
    03:00 +8°C° 0 mm 3 mps 653 mmHg 88%
    04:00 +8°C° 0 mm 3 mps 653 mmHg 88%
    05:00 +8°C° 0 mm 3 mps 653 mmHg 89%
    06:00 +9°C° 0 mm 3 mps 654 mmHg 86%
    07:00 +8°C° 0 mm 4 mps 654 mmHg 84%
    08:00 +10°C° 0 mm 4 mps 655 mmHg 81%
    09:00 +12°C° 0 mm 4 mps 656 mmHg 71%
    10:00 +14°C° 0 mm 4 mps 656 mmHg 61%
    11:00 +17°C° 0 mm 4 mps 657 mmHg 52%
    12:00 +18°C° 0 mm 4 mps 656 mmHg 46%
    13:00 +19°C° 0 mm 4 mps 656 mmHg 40%
    14:00 +21°C° 0 mm 4 mps 655 mmHg 34%
    15:00 +20°C° 0 mm 4 mps 655 mmHg 35%
    16:00 +19°C° 0 mm 4 mps 655 mmHg 37%
    17:00 +18°C° 0 mm 4 mps 654 mmHg 39%
    18:00 +17°C° 0 mm 4 mps 654 mmHg 47%
    19:00 +14°C° 0 mm 4 mps 654 mmHg 54%
    20:00 +13°C° 0 mm 4 mps 655 mmHg 62%
    21:00 +12°C° 0 mm 4 mps 655 mmHg 66%
    22:00 +11°C° 0 mm 4 mps 655 mmHg 70%
    23:00 +11°C° 0 mm 4 mps 655 mmHg 74%

    22 July, Sunday

    Time Temperature Precipitation Wind Pressure Humidity
    00:00 +10°C° 0 mm 3 mps 655 mmHg 75%
    01:00 +10°C° 0 mm 3 mps 654 mmHg 76%
    02:00 +10°C° 0 mm 3 mps 654 mmHg 77%
    03:00 +9°C° 0 mm 3 mps 654 mmHg 77%
    04:00 +9°C° 0 mm 3 mps 654 mmHg 77%
    05:00 +9°C° 0 mm 3 mps 654 mmHg 78%
    06:00 +9°C° 0 mm 3 mps 655 mmHg 74%
    07:00 +10°C° 0 mm 4 mps 655 mmHg 71%
    08:00 +11°C° 0 mm 4 mps 656 mmHg 68%
    09:00 +13°C° 0 mm 4 mps 656 mmHg 60%
    10:00 +17°C° 0 mm 4 mps 657 mmHg 52%
    11:00 +19°C° 0 mm 4 mps 657 mmHg 45%
    12:00 +20°C° 0 mm 4 mps 657 mmHg 41%
    13:00 +21°C° 0 mm 4 mps 656 mmHg 37%
    14:00 +22°C° 0 mm 4 mps 656 mmHg 33%
    15:00 +21°C° 0 mm 4 mps 656 mmHg 35%
    16:00 +21°C° 0 mm 4 mps 655 mmHg 38%
    17:00 +20°C° 0 mm 4 mps 655 mmHg 40%
    18:00 +18°C° 0 mm 4 mps 655 mmHg 47%
    19:00 +17°C° 0 mm 4 mps 655 mmHg 55%
    20:00 +14°C° 0 mm 4 mps 655 mmHg 63%
    21:00 +13°C° 0 mm 4 mps 655 mmHg 68%
    22:00 +12°C° 0 mm 4 mps 655 mmHg 74%
    23:00 +12°C° 0 mm 4 mps 655 mmHg 80%

    23 July, Monday

    Time Temperature Precipitation Wind Pressure Humidity
    00:00 +11°C° 0 mm 4 mps 654 mmHg 81%
    01:00 +11°C° 0 mm 4 mps 654 mmHg 82%
    02:00 +11°C° 0 mm 3 mps 654 mmHg 83%
    03:00 +10°C° 0 mm 3 mps 654 mmHg 82%
    04:00 +10°C° 0 mm 3 mps 654 mmHg 82%
    05:00 +9°C° 0 mm 3 mps 654 mmHg 82%
    06:00 +10°C° 0 mm 3 mps 655 mmHg 77%
    07:00 +11°C° 0 mm 4 mps 655 mmHg 72%
    08:00 +11°C° 0 mm 4 mps 656 mmHg 68%
    09:00 +13°C° 0 mm 4 mps 656 mmHg 59%
    10:00 +17°C° 0 mm 4 mps 656 mmHg 51%
    11:00 +19°C° 0 mm 4 mps 657 mmHg 43%
    12:00 +20°C° 0 mm 4 mps 656 mmHg 38%
    13:00 +21°C° 0 mm 3 mps 656 mmHg 33%
    14:00 +22°C° 0 mm 3 mps 655 mmHg 28%
    15:00 +21°C° 0 mm 3 mps 655 mmHg 30%
    16:00 +21°C° 0 mm 4 mps 655 mmHg 31%
    17:00 +20°C° 0 mm 4 mps 654 mmHg 32%
    18:00 +18°C° 0 mm 4 mps 654 mmHg 39%
    19:00 +15°C° 0 mm 4 mps 654 mmHg 45%
    20:00 +14°C° 0 mm 4 mps 654 mmHg 52%
    21:00 +13°C° 0 mm 4 mps 654 mmHg 54%
    22:00 +12°C° 0 mm 4 mps 654 mmHg 57%
    23:00 +12°C° 0 mm 4 mps 654 mmHg 59%
    Show more